Content
SEND FEEDBACK

Daily
Averages
Monthly
Summary
Canada

QUEBEC CITY AIRPORT, QUEBEC


Home > North America > Canada > Quebec
Elevation: 244 feet     Latitude: 46 48N     Longitude: 71 23W

WEATHER
 
SELECT A DAY
Number of Records: 192,604;   Date Range: 6/30/96 - 8/31/14
 
SHARE

PRINT THIS DATA

[ ← Previous Day ]
WEATHER ALMANAC - MARCH 16, 2013
[ Next Day → ]
[ °C ]   °F
Weather ElementAverageHighLow
Temperature18.7 °F23 °F (1:00 am)12.2 °F (7:00 am)
Dewpoint5.8 °F14 °F (1:00 am) (7:00 pm)
Humidity54.1 %73 % (10:00 pm)31 % (11:00 am)
Barometer29.83 in29.89 in (11:00 pm)29.72 in (1:00 am)
Wind Speed9.5 mph17.3 mph (6:00 pm)
Wind Gust21.9 mph (3:00 pm)
Weather ElementAverage
Visibility21.1 mi
Wind DirectionWNW (283.5 °)

Weather ElementTotal
Precipitation---
Heating Degree Days47.4 (Base 65)
Averaged from 31 records on March 16, 2013
WEATHER CONDITIONS BREAKOUT
WIND DIRECTION BREAKOUT
WEATHER BY HOUR - MARCH 16, 2013
[ °C ]   °F
Local TimeTemperatureDewpointHumidityBarometerVisibilityWind DirectionWind SpeedGust SpeedPrecipitationEventsConditions
1:00 AM23.0 °F14.0 °F68 %29.72 in15.0 miNNW (340°)6.9 mphOvercast
2:00 AM21.0 °F9.0 °F46 %29.73 inNNW (340°)10.4 mph
2:00 AM21.2 °F6.8 °F54 %29.73 in15.0 miNNW (340°)10.4 mph18.4 mphOvercast
3:00 AM19.4 °F6.8 °F58 %29.75 in15.0 miNNW (330°)8.1 mphPartly Cloudy
4:00 AM17.6 °F5.0 °F58 %29.78 in15.0 miNNW (330°)9.2 mphPartly Cloudy
5:00 AM16.0 °F4.0 °F46 %29.80 inNNW (330°)6.9 mph
5:00 AM15.8 °F3.2 °F58 %29.80 in15.0 miNNW (330°)4.6 mphClear
6:00 AM14.0 °F3.2 °F62 %29.82 in15.0 miWNW (290°)5.8 mphClear
7:00 AM12.2 °F1.4 °F62 %29.85 in25.0 miNW (320°)6.9 mphPartly Cloudy
8:00 AM13.0 °F2.0 °F47 %29.86 inWNW (290°)5.8 mph
8:00 AM14.0 °F1.4 °F57 %29.86 in25.0 miWNW (300°)5.8 mphPartly Cloudy
9:00 AM15.8 °F3.2 °F58 %29.85 in25.0 miNW (320°)13.8 mphPartly Cloudy
10:00 AM17.6 °F1.4 °F49 %29.86 in25.0 miNW (320°)10.4 mphPartly Cloudy
11:00 AM18.0 °F0.0 °F31 %29.83 inNW (320°)6.9 mph
11:00 AM17.6 °F1.4 °F49 %29.84 in25.0 miWNW (300°)3.5 mphPartly Cloudy
12:00 PM19.4 °F8.6 °F63 %29.84 in25.0 miWest (260°)9.2 mphPartly Cloudy
1:00 PM21.2 °F6.8 °F54 %29.83 in25.0 miWest (260°)9.2 mphScattered Clouds
2:00 PM22.0 °F4.0 °F31 %29.82 inWSW (250°)10.4 mph
2:00 PM23.0 °F8.6 °F54 %29.83 in25.0 miSW (230°)15.0 mph20.7 mphMostly Cloudy
3:00 PM23.0 °F6.8 °F50 %29.82 in30.0 miWSW (250°)15.0 mph21.9 mphMostly Cloudy
4:00 PM23.0 °F10.4 °F59 %29.82 in30.0 miWest (270°)16.1 mphMostly Cloudy
5:00 PM23.0 °F5.0 °F31 %29.82 inWest (260°)10.4 mph
5:00 PM23.0 °F5.0 °F46 %29.83 in30.0 miWest (260°)11.5 mphMostly Cloudy
6:00 PM21.2 °F8.6 °F58 %29.83 in30.0 miSW (230°)17.3 mphOvercast
7:00 PM21.2 °F6.8 °F54 %29.84 in15.0 miSW (220°)11.5 mphMostly Cloudy
8:00 PM20.0 °F8.0 °F47 %29.85 inWSW (240°)10.4 mph
8:00 PM19.4 °F8.6 °F63 %29.86 in15.0 miWSW (250°)13.8 mphMostly Cloudy
9:00 PM17.6 °F8.6 °F68 %29.87 in15.0 miWSW (250°)9.2 mphPartly Cloudy
10:00 PM15.8 °F8.6 °F73 %29.88 in15.0 miWSW (250°)6.9 mphPartly Cloudy
11:00 PM16.0 °F7.0 °F56 %29.88 inWSW (250°)5.8 mph
11:00 PM15.8 °F6.8 °F68 %29.89 in15.0 miWest (260°)6.9 mphPartly Cloudy
Hourly data recorded from CYQB, located miles away from Quebec City Airport, Quebec







STORIES FROM OUR PARTNERS